Change the Weather History Date:

Monday, November 25, 2013

  Actual Average (KBFD) Record (KBFD)
Temperature  
Mean Temperature 21 °F 33 °F  
Max Temperature 30 °F 41 °F 61 °F (2006)
Min Temperature 12 °F 26 °F 8 °F (2005)
Degree Days  
Heating Degree Days 44 27  
Month to date heating degree days 562  
Since 1 July heating degree days 1555  
Cooling Degree Days 0 0  
Month to date cooling degree days 0  
Year to date cooling degree days 193  
Moisture  
Dew Point 9 °F    
Average Humidity 63    
Maximum Humidity 85    
Minimum Humidity 36    
Precipitation  
Precipitation 0.00 in 0.13 in 1.33 in (2001)
Month to date precipitation 3.10  
Year to date precipitation 40.40  
Sea Level Pressure  
Sea Level Pressure 30.28 in    
Wind  
Wind Speed 9 mph (SW)    
Max Wind Speed 17 mph    
Max Gust Speed 28 mph    
Visibility 9 miles    
Events Snow    
T = Trace of Precipitation, MM = Missing Value Source: NWS Daily Summary

Daily Weather History Graph

Daily Weather History Graph

Search for Another Location

Airport or City:

Trip Planner

Search our weather history database for the weather conditions in past years. The results will help you decide how hot, cold, wet, or windy it might be!

Date:

Astronomy

Nov. 25, 2013 Rise Set
Actual Time 7:14 AM EST 4:43 PM EST
Civil Twilight 6:43 AM EST 5:14 PM EST
Nautical Twilight 6:09 AM EST 5:48 PM EST
Astronomical Twilight 5:35 AM EST 6:22 PM EST
Moon No Moon Rise 12:26 PM EST (11/25)
Length of Visible Light 10h 30m
Length of Day
9h 29m
Waning Gibbous, 51% of the Moon is Illuminated
Nov 25
Waning Gibbous
Nov 25
Last Quarter
Dec 2
New
Dec 9
First Quarter
Dec 17
Full

Hourly Weather History & Observations

Time (EST) Temp. Windchill Dew Point Humidity Pressure Visibility Wind Dir Wind Speed Gust Speed Precip Events Conditions
12:56 AM 14.0 °F 6.5 °F 10.0 °F 84% 30.40 in 9.0 mi West 4.6 mph - 0.00 in Snow Light Snow
1:09 AM 12.2 °F 4.3 °F 8.6 °F 85% 30.28 in 10.0 mi WSW 4.6 mph - 0.00 in   Overcast
1:29 AM 12.2 °F 2.9 °F 8.6 °F 85% 30.28 in 10.0 mi WSW 5.8 mph - 0.00 in   Scattered Clouds
1:56 AM 12.9 °F 5.2 °F 9.0 °F 84% 30.40 in 10.0 mi WSW 4.6 mph - 0.00 in   Clear
2:56 AM 14.0 °F 2.0 °F 8.1 °F 77% 30.42 in 10.0 mi WSW 9.2 mph - N/A   Clear
3:42 AM 12.2 °F 0.7 °F 8.6 °F 85% 30.29 in 10.0 mi WSW 8.1 mph - N/A   Mostly Cloudy
3:56 AM 12.9 °F 0.7 °F 9.0 °F 84% 30.42 in 10.0 mi SW 9.2 mph - N/A   Mostly Cloudy
4:11 AM 12.2 °F -1.8 °F 8.6 °F 85% 30.29 in 10.0 mi SW 11.5 mph - N/A   Scattered Clouds
4:42 AM 12.2 °F -1.8 °F 8.6 °F 85% 30.29 in 10.0 mi SW 11.5 mph - N/A   Mostly Cloudy
4:56 AM 14.0 °F 0.5 °F 9.0 °F 80% 30.42 in 10.0 mi SW 11.5 mph - N/A   Mostly Cloudy
4:58 AM 14.0 °F 1.2 °F 8.6 °F 79% 30.29 in 10.0 mi SW 10.4 mph - N/A   Scattered Clouds
5:56 AM 15.1 °F 1.1 °F 10.0 °F 80% 30.41 in 9.0 mi SW 12.7 mph 18.4 mph 0.00 in Snow Light Snow
6:39 AM 15.8 °F 2.7 °F 10.4 °F 79% 30.29 in 10.0 mi SW 11.5 mph - N/A   Overcast
6:56 AM 15.1 °F 1.1 °F 10.0 °F 80% 30.40 in 10.0 mi SW 12.7 mph 20.7 mph N/A   Overcast
7:53 AM 15.8 °F 4.2 °F 8.6 °F 73% 30.29 in 10.0 mi WSW 9.2 mph - N/A   Scattered Clouds
7:56 AM 15.1 °F 3.3 °F 9.0 °F 77% 30.42 in 10.0 mi SW 9.2 mph - N/A   Partly Cloudy
8:56 AM 17.1 °F 5.8 °F 9.0 °F 71% 30.41 in 10.0 mi WSW 9.2 mph - N/A   Clear
9:56 AM 19.9 °F 5.2 °F 8.1 °F 60% 30.38 in 10.0 mi WSW 17.3 mph 23.0 mph N/A   Clear
10:56 AM 21.9 °F 12.5 °F 7.0 °F 53% 30.35 in 10.0 mi SSW 8.1 mph - N/A   Clear
11:56 AM 25.0 °F 14.2 °F 7.0 °F 46% 30.31 in 10.0 mi SW 11.5 mph 18.4 mph N/A   Clear
12:56 PM 26.1 °F 15.6 °F 3.9 °F 39% 30.28 in 10.0 mi WSW 11.5 mph 25.3 mph N/A   Clear
1:56 PM 28.0 °F 17.0 °F 6.1 °F 39% 30.24 in 10.0 mi SW 13.8 mph 21.9 mph N/A   Clear
2:56 PM 28.9 °F 18.6 °F 6.1 °F 38% 30.22 in 10.0 mi South 12.7 mph 21.9 mph N/A   Overcast
3:56 PM 28.0 °F 18.6 °F 3.9 °F 36% 30.22 in 10.0 mi South 10.4 mph 19.6 mph N/A   Scattered Clouds
4:56 PM 28.0 °F 18.6 °F 5.0 °F 38% 30.21 in 10.0 mi South 10.4 mph 26.5 mph N/A   Mostly Cloudy
5:56 PM 27.0 °F 18.0 °F 3.9 °F 37% 30.22 in 10.0 mi SSW 9.2 mph 16.1 mph N/A   Overcast
6:56 PM 28.0 °F 19.3 °F 3.9 °F 36% 30.21 in 10.0 mi South 9.2 mph - N/A   Mostly Cloudy
7:56 PM 28.0 °F 21.7 °F 5.0 °F 38% 30.20 in 10.0 mi Variable 5.8 mph - N/A   Mostly Cloudy
8:56 PM 28.9 °F 18.6 °F 6.1 °F 38% 30.18 in 10.0 mi SSW 12.7 mph 21.9 mph N/A   Mostly Cloudy
9:56 PM 28.0 °F 20.8 °F 7.0 °F 41% 30.17 in 10.0 mi Variable 6.9 mph - N/A   Mostly Cloudy
10:56 PM 30.0 °F 19.5 °F 10.9 °F 45% 30.19 in 10.0 mi SW 13.8 mph 19.6 mph N/A   Overcast
11:21 PM 28.4 °F 18.5 °F 15.8 °F 59% 30.10 in 5.0 mi SW 11.5 mph 27.6 mph 0.00 in Snow Light Snow
11:35 PM 28.4 °F 18.5 °F 17.6 °F 64% 30.10 in 6.0 mi WSW 11.5 mph 21.9 mph 0.00 in Snow Light Snow
11:48 PM 28.4 °F 18.5 °F 17.6 °F 64% 30.10 in 3.0 mi WSW 11.5 mph 20.7 mph 0.00 in Snow Light Snow
11:56 PM 28.0 °F 16.5 °F 18.0 °F 66% 30.19 in 5.0 mi WSW 15.0 mph 20.7 mph 0.00 in Snow Light Snow